Weather History for Warroad, MN

Change the Weather History Date:

Saturday, January 19, 2013

  Actual Average Record
Temperature  
Mean Temperature 0 °F -  
Max Temperature 12 °F 13 °F 36 °F (1991)
Min Temperature -13 °F -9 °F -37 °F (1985)
Degree Days  
Heating Degree Days 66    
Moisture  
Dew Point -1 °F    
Average Humidity 79    
Maximum Humidity 92    
Minimum Humidity 66    
Precipitation  
Precipitation 0.01 in - - ()
Sea Level Pressure  
Sea Level Pressure 29.87 in    
Wind  
Wind Speed 9 mph (NW)    
Max Wind Speed 22 mph    
Max Gust Speed 32 mph    
Visibility 6 miles    
Events Snow    
Averages and records for this station are not official NWS values.
T = Trace of Precipitation, MM = Missing Value Source: NWS Daily Summary

Daily Weather History Graph

Daily Weather History Graph

Search for Another Location

Airport:

Trip Planner

Search our weather history database for the weather conditions in past years. The results will help you decide how hot, cold, wet, or windy it might be!

Date:

Astronomy

Jan. 19, 2013 Rise Set
Actual Time 8:06 AM CST 4:58 PM CST
Civil Twilight 7:30 AM CST 5:34 PM CST
Nautical Twilight 6:51 AM CST 6:13 PM CST
Astronomical Twilight 6:14 AM CST 6:50 PM CST
Moon 11:31 AM CST (1/19) 1:33 AM CST (1/19)
Length of Visible Light 10h 03m
Length of Day
8h 52m
First Quarter, 57% of the Moon is Illuminated
Jan 19
First Quarter
Jan 26
Full
Feb 3
Last Quarter
Feb 10
New
Feb 17
First Quarter

Hourly Weather History & Observations

Time (CST) Temp. Windchill Dew Point Humidity Pressure Visibility Wind Dir Wind Speed Gust Speed Precip Events Conditions
12:14 AM 10.4 °F -0.4 °F 6.8 °F 85% 29.68 in 10.0 mi ESE 6.9 mph - N/A   Overcast
12:34 AM 10.4 °F -0.4 °F 6.8 °F 85% 29.67 in 5.0 mi East 6.9 mph - N/A Snow Light Snow
12:54 AM 12.2 °F 6.1 °F 6.8 °F 79% 29.68 in 4.0 mi SE 3.5 mph - N/A Snow Light Snow
1:14 AM 12.2 °F 6.1 °F 6.8 °F 79% 29.67 in 5.0 mi ESE 3.5 mph - N/A Snow Light Snow
1:34 AM 12.2 °F 6.1 °F 8.6 °F 85% 29.66 in 5.0 mi East 3.5 mph - N/A Snow Light Snow
1:54 AM 12.2 °F - 8.6 °F 85% 29.66 in 2.5 mi Calm Calm - N/A Snow Light Snow
2:14 AM 12.2 °F 2.9 °F 8.6 °F 85% 29.65 in 1.8 mi East 5.8 mph - N/A Snow Light Snow
2:34 AM 12.2 °F 2.9 °F 8.6 °F 85% 29.64 in 0.8 mi East 5.8 mph - 0.01 in Snow Snow
2:54 AM 12.2 °F 1.7 °F 8.6 °F 85% 29.63 in 1.0 mi East 6.9 mph - 0.01 in Snow Snow
3:14 AM 12.2 °F 2.9 °F 8.6 °F 85% 29.62 in 0.8 mi East 5.8 mph - N/A Snow Snow
3:35 AM 12.2 °F 2.9 °F 8.6 °F 85% 29.60 in 1.0 mi ESE 5.8 mph - N/A Snow Light Snow
3:54 AM 12.2 °F 6.1 °F 8.6 °F 85% 29.60 in 1.5 mi East 3.5 mph - N/A Snow Light Snow
4:14 AM 12.2 °F - 8.6 °F 85% 29.60 in 1.2 mi Calm Calm - N/A Snow Light Snow
4:34 AM 12.2 °F - 8.6 °F 85% 29.60 in 2.0 mi Calm Calm - N/A Snow Light Snow
4:54 AM 12.2 °F - 8.6 °F 85% 29.59 in 10.0 mi Calm Calm - N/A   Overcast
5:14 AM 12.2 °F - 8.6 °F 85% 29.59 in 10.0 mi Calm Calm - N/A   Overcast
5:34 AM 12.2 °F 6.1 °F 8.6 °F 85% 29.59 in 10.0 mi NNE 3.5 mph - N/A   Overcast
5:54 AM 12.2 °F - 8.6 °F 85% 29.60 in 10.0 mi Calm Calm - N/A   Overcast
6:14 AM 12.2 °F 2.9 °F 8.6 °F 85% 29.62 in 10.0 mi NW 5.8 mph - N/A   Overcast
6:34 AM 12.2 °F 4.3 °F 8.6 °F 85% 29.62 in 5.0 mi NW 4.6 mph - N/A   Overcast
6:54 AM 12.2 °F 4.3 °F 8.6 °F 85% 29.62 in 3.0 mi WNW 4.6 mph - N/A Snow Light Snow
7:14 AM 12.2 °F 4.3 °F 8.6 °F 85% 29.62 in 4.0 mi NW 4.6 mph - N/A Snow Light Snow
7:34 AM 12.2 °F 1.7 °F 8.6 °F 85% 29.64 in 4.0 mi WNW 6.9 mph - N/A Snow Light Snow
7:54 AM 10.4 °F -3.3 °F 6.8 °F 85% 29.65 in 7.0 mi WNW 10.4 mph - N/A Snow Light Snow
8:14 AM 10.4 °F -5.4 °F 6.8 °F 85% 29.66 in 10.0 mi WNW 13.8 mph 19.6 mph N/A Snow Light Snow
8:34 AM 8.6 °F -6.3 °F 6.8 °F 92% 29.68 in 10.0 mi WNW 11.5 mph 17.3 mph N/A Snow Light Snow
8:54 AM 8.6 °F -7.0 °F 3.2 °F 79% 29.70 in 7.0 mi WNW 12.7 mph 18.4 mph N/A   Scattered Clouds
9:14 AM 8.6 °F -8.9 °F 3.2 °F 79% 29.72 in 7.0 mi WNW 16.1 mph 23.0 mph N/A Snow Light Snow
9:34 AM 6.8 °F -13.4 °F 3.2 °F 85% 29.72 in 4.0 mi NW 20.7 mph 25.3 mph N/A   Scattered Clouds
9:54 AM 6.8 °F -13.8 °F 1.4 °F 79% 29.73 in 2.0 mi NW 21.9 mph 28.8 mph N/A   Haze
10:14 AM 5.0 °F -14.2 °F -0.4 °F 78% 29.75 in 3.0 mi WNW 17.3 mph 25.3 mph N/A   Haze
10:34 AM 5.0 °F -13.6 °F -0.4 °F 78% 29.76 in 5.0 mi WNW 16.1 mph 20.7 mph N/A   Haze
10:54 AM 5.0 °F -13.6 °F -0.4 °F 78% 29.77 in 3.0 mi WNW 16.1 mph 23.0 mph N/A   Haze
11:14 AM 5.0 °F -13.0 °F -0.4 °F 78% 29.77 in 3.0 mi WNW 15.0 mph 21.9 mph N/A   Haze
11:34 AM 5.0 °F -13.6 °F -2.2 °F 72% 29.79 in 2.5 mi WNW 16.1 mph 23.0 mph N/A   Haze
11:54 AM 5.0 °F -16.2 °F -2.2 °F 72% 29.79 in 1.5 mi NW 21.9 mph 31.1 mph N/A   Haze
12:14 PM 3.2 °F -18.6 °F -2.2 °F 78% 29.80 in 1.2 mi NW 21.9 mph 28.8 mph N/A Snow Light Snow
12:34 PM 3.2 °F -16.5 °F -2.2 °F 78% 29.81 in 1.5 mi NW 17.3 mph 32.2 mph N/A   Haze
12:54 PM 3.2 °F -18.1 °F -2.2 °F 78% 29.82 in 1.5 mi NW 20.7 mph 24.2 mph N/A   Haze
1:34 PM 3.2 °F -16.5 °F -4.0 °F 72% 29.86 in 1.0 mi NNW 17.3 mph 27.6 mph N/A Snow Light Snow
1:54 PM 3.2 °F -14.6 °F -4.0 °F 72% 29.88 in 1.8 mi NNW 13.8 mph 24.2 mph N/A   Haze
2:14 PM 3.2 °F -15.3 °F -2.2 °F 78% 29.89 in 2.0 mi NNW 15.0 mph 20.7 mph N/A   Haze
2:34 PM 3.2 °F -17.6 °F -2.2 °F 78% 29.91 in 1.0 mi NNW 19.6 mph 28.8 mph N/A Snow Light Snow
2:54 PM 5.0 °F -15.2 °F -2.2 °F 72% 29.93 in 2.5 mi NW 19.6 mph 24.2 mph N/A   Haze
3:15 PM 5.0 °F -12.3 °F -2.2 °F 72% 29.95 in 1.5 mi NNW 13.8 mph 26.5 mph N/A Snow Light Snow
3:34 PM 3.2 °F -18.1 °F -2.2 °F 78% 29.98 in 0.8 mi NNW 20.7 mph 28.8 mph N/A Snow Light Snow
3:54 PM 3.2 °F -17.6 °F -2.2 °F 78% 30.00 in 1.8 mi NW 19.6 mph 24.2 mph N/A   Haze
4:14 PM 3.2 °F -15.3 °F -4.0 °F 72% 30.03 in 2.5 mi NNW 15.0 mph 24.2 mph N/A   Haze
4:34 PM 3.2 °F -16.5 °F -4.0 °F 72% 30.05 in 1.5 mi NNW 17.3 mph 25.3 mph N/A Snow Light Snow
4:54 PM 3.2 °F -15.3 °F -5.8 °F 66% 30.06 in 3.0 mi NNW 15.0 mph 23.0 mph N/A   Haze
5:14 PM 1.4 °F -16.9 °F -5.8 °F 72% 30.08 in 7.0 mi NW 13.8 mph 18.4 mph N/A   Clear
5:34 PM 1.4 °F -16.9 °F -5.8 °F 72% 30.10 in 10.0 mi NW 13.8 mph 21.9 mph N/A   Clear
5:55 PM -0.4 °F -18.4 °F -7.6 °F 72% 30.12 in 10.0 mi NW 12.7 mph 20.7 mph N/A   Clear
6:14 PM -0.4 °F -19.2 °F -7.6 °F 72% 30.13 in 10.0 mi NW 13.8 mph 19.6 mph N/A   Clear
6:34 PM -0.4 °F -19.2 °F -7.6 °F 72% 30.14 in 10.0 mi NW 13.8 mph 20.7 mph N/A   Clear
6:55 PM -2.2 °F -22.2 °F -9.4 °F 71% 30.16 in 10.0 mi NW 15.0 mph - N/A   Clear
7:14 PM -4.0 °F -23.7 °F -9.4 °F 78% 30.17 in 10.0 mi WNW 13.8 mph 17.3 mph N/A   Clear
7:34 PM -5.8 °F -26.0 °F -11.2 °F 77% 30.18 in 10.0 mi WNW 13.8 mph 21.9 mph N/A   Clear
7:55 PM -5.8 °F -25.2 °F -11.2 °F 77% 30.20 in 10.0 mi WNW 12.7 mph - N/A   Clear
8:14 PM -5.8 °F -28.2 °F -11.2 °F 77% 30.20 in 10.0 mi WNW 17.3 mph 20.7 mph N/A   Clear
8:34 PM -7.6 °F -29.1 °F -13.0 °F 77% 30.21 in 10.0 mi NW 15.0 mph 20.7 mph N/A   Clear
8:55 PM -7.6 °F -29.1 °F -14.8 °F 71% 30.21 in 10.0 mi WNW 15.0 mph - N/A   Clear
9:14 PM -9.4 °F -31.4 °F -14.8 °F 77% 30.21 in 10.0 mi NW 15.0 mph 18.4 mph N/A   Clear
9:34 PM -9.4 °F -29.8 °F -14.8 °F 77% 30.21 in 10.0 mi NW 12.7 mph - N/A   Clear
9:54 PM -9.4 °F -28.9 °F -14.8 °F 77% 30.21 in 10.0 mi NW 11.5 mph - N/A   Clear
10:14 PM -9.4 °F -26.8 °F -16.6 °F 71% 30.22 in 10.0 mi NW 9.2 mph - N/A   Clear
10:34 PM -11.2 °F -26.4 °F -16.6 °F 77% 30.24 in 10.0 mi West 6.9 mph - N/A   Clear
10:54 PM -11.2 °F -27.8 °F -16.6 °F 77% 30.24 in 10.0 mi West 8.1 mph - N/A   Clear
11:14 PM -11.2 °F -24.8 °F -16.6 °F 77% 30.23 in 10.0 mi WNW 5.8 mph - N/A   Clear
11:34 PM -13.0 °F -27.0 °F -18.4 °F 77% 30.24 in 10.0 mi West 5.8 mph - N/A   Clear
11:54 PM -13.0 °F -28.6 °F -18.4 °F 77% 30.24 in 10.0 mi WNW 6.9 mph - N/A   Clear